<?xml version="1.0" encoding="UTF-8" standalone="no" ?>
<gpx xmlns="http://www.topografix.com/GPX/1/1" xmlns:xsi="http://www.w3.org/2001/XMLSchema-instance" xsi:schemaLocation="http://www.topografix.com/GPX/1/1 http://www.topografix.com/GPX/1/1/gpx.xsd" version="1.1" creator="VisuGPX - https://www.visugpx.com">
  <metadata>
    <name>randonnée 13 km</name>
    <desc><![CDATA[randonnée de 13 km lors de la 26eme randonnée de l' excrebieux à izel les esquerchin]]></desc>
  </metadata>
  <trk>
    <name><![CDATA[randonnée 13 km_1]]></name>
    <trkseg>
      <trkpt lat="50.36172" lon="2.94949">
        <ele>35</ele>
        <time>2016-04-29T18:51:03+02:00</time>
      </trkpt>
      <trkpt lat="50.36195" lon="2.94977">
        <ele>35</ele>
        <time>2016-04-29T18:51:08+02:00</time>
      </trkpt>
      <trkpt lat="50.36176" lon="2.95006">
        <ele>35</ele>
        <time>2016-04-29T18:51:13+02:00</time>
      </trkpt>
      <trkpt lat="50.36148" lon="2.95046">
        <ele>35</ele>
        <time>2016-04-29T18:51:18+02:00</time>
      </trkpt>
      <trkpt lat="50.36097" lon="2.95114">
        <ele>37</ele>
        <time>2016-04-29T18:51:23+02:00</time>
      </trkpt>
      <trkpt lat="50.36128" lon="2.95148">
        <ele>37</ele>
        <time>2016-04-29T18:51:28+02:00</time>
      </trkpt>
      <trkpt lat="50.36156" lon="2.95194">
        <ele>37</ele>
        <time>2016-04-29T18:51:33+02:00</time>
      </trkpt>
      <trkpt lat="50.36183" lon="2.95266">
        <ele>37</ele>
        <time>2016-04-29T18:51:38+02:00</time>
      </trkpt>
      <trkpt lat="50.36124" lon="2.95304">
        <ele>39</ele>
        <time>2016-04-29T18:51:43+02:00</time>
      </trkpt>
      <trkpt lat="50.36032" lon="2.95338">
        <ele>41</ele>
        <time>2016-04-29T18:51:48+02:00</time>
      </trkpt>
      <trkpt lat="50.35926" lon="2.95354">
        <ele>43</ele>
        <time>2016-04-29T18:51:53+02:00</time>
      </trkpt>
      <trkpt lat="50.35924" lon="2.95356">
        <ele>43</ele>
        <time>2016-04-29T18:51:58+02:00</time>
      </trkpt>
      <trkpt lat="50.35914" lon="2.95341">
        <ele>43</ele>
        <time>2016-04-29T18:52:03+02:00</time>
      </trkpt>
      <trkpt lat="50.35868" lon="2.95365">
        <ele>43</ele>
        <time>2016-04-29T18:52:08+02:00</time>
      </trkpt>
      <trkpt lat="50.35784" lon="2.95585">
        <ele>44</ele>
        <time>2016-04-29T18:52:13+02:00</time>
      </trkpt>
      <trkpt lat="50.35928" lon="2.95773">
        <ele>42</ele>
        <time>2016-04-29T18:52:18+02:00</time>
      </trkpt>
      <trkpt lat="50.36077" lon="2.95936">
        <ele>40</ele>
        <time>2016-04-29T18:52:23+02:00</time>
      </trkpt>
      <trkpt lat="50.36267" lon="2.95871">
        <ele>34</ele>
        <time>2016-04-29T18:52:28+02:00</time>
      </trkpt>
      <trkpt lat="50.36359" lon="2.95835">
        <ele>32</ele>
        <time>2016-04-29T18:52:33+02:00</time>
      </trkpt>
      <trkpt lat="50.36392" lon="2.95824">
        <ele>31</ele>
        <time>2016-04-29T18:52:38+02:00</time>
      </trkpt>
      <trkpt lat="50.36425" lon="2.95824">
        <ele>31</ele>
        <time>2016-04-29T18:52:43+02:00</time>
      </trkpt>
      <trkpt lat="50.36433" lon="2.95844">
        <ele>32</ele>
        <time>2016-04-29T18:52:48+02:00</time>
      </trkpt>
      <trkpt lat="50.36448" lon="2.95893">
        <ele>32</ele>
        <time>2016-04-29T18:52:53+02:00</time>
      </trkpt>
      <trkpt lat="50.36458" lon="2.95959">
        <ele>33</ele>
        <time>2016-04-29T18:52:58+02:00</time>
      </trkpt>
      <trkpt lat="50.36478" lon="2.96057">
        <ele>32</ele>
        <time>2016-04-29T18:53:03+02:00</time>
      </trkpt>
      <trkpt lat="50.36499" lon="2.9615">
        <ele>31</ele>
        <time>2016-04-29T18:53:08+02:00</time>
      </trkpt>
      <trkpt lat="50.36527" lon="2.96146">
        <ele>32</ele>
        <time>2016-04-29T18:53:13+02:00</time>
      </trkpt>
      <trkpt lat="50.36547" lon="2.96235">
        <ele>32</ele>
        <time>2016-04-29T18:53:18+02:00</time>
      </trkpt>
      <trkpt lat="50.36577" lon="2.96319">
        <ele>33</ele>
        <time>2016-04-29T18:53:23+02:00</time>
      </trkpt>
      <trkpt lat="50.36627" lon="2.96426">
        <ele>34</ele>
        <time>2016-04-29T18:53:28+02:00</time>
      </trkpt>
      <trkpt lat="50.36651" lon="2.96491">
        <ele>36</ele>
        <time>2016-04-29T18:53:33+02:00</time>
      </trkpt>
      <trkpt lat="50.36659" lon="2.96527">
        <ele>37</ele>
        <time>2016-04-29T18:53:38+02:00</time>
      </trkpt>
      <trkpt lat="50.36662" lon="2.96571">
        <ele>38</ele>
        <time>2016-04-29T18:53:43+02:00</time>
      </trkpt>
      <trkpt lat="50.36663" lon="2.96679">
        <ele>38</ele>
        <time>2016-04-29T18:53:48+02:00</time>
      </trkpt>
      <trkpt lat="50.36661" lon="2.9673">
        <ele>38</ele>
        <time>2016-04-29T18:53:53+02:00</time>
      </trkpt>
      <trkpt lat="50.36665" lon="2.96794">
        <ele>38</ele>
        <time>2016-04-29T18:53:58+02:00</time>
      </trkpt>
      <trkpt lat="50.3676" lon="2.97409">
        <ele>34</ele>
        <time>2016-04-29T18:54:03+02:00</time>
      </trkpt>
      <trkpt lat="50.36777" lon="2.97467">
        <ele>34</ele>
        <time>2016-04-29T19:31:10+02:00</time>
      </trkpt>
      <trkpt lat="50.36796" lon="2.97526">
        <ele>34</ele>
        <time>2016-04-29T19:31:15+02:00</time>
      </trkpt>
      <trkpt lat="50.36816" lon="2.97604">
        <ele>34</ele>
        <time>2016-04-29T19:31:20+02:00</time>
      </trkpt>
      <trkpt lat="50.36832" lon="2.97682">
        <ele>34</ele>
        <time>2016-04-29T19:31:25+02:00</time>
      </trkpt>
      <trkpt lat="50.36834" lon="2.97746">
        <ele>33</ele>
        <time>2016-04-29T19:31:30+02:00</time>
      </trkpt>
      <trkpt lat="50.36833" lon="2.97813">
        <ele>34</ele>
        <time>2016-04-29T18:55:03+02:00</time>
      </trkpt>
      <trkpt lat="50.36825" lon="2.97814">
        <ele>33</ele>
        <time>2016-04-29T19:31:40+02:00</time>
      </trkpt>
      <trkpt lat="50.36818" lon="2.97903">
        <ele>33</ele>
        <time>2016-04-29T19:31:45+02:00</time>
      </trkpt>
      <trkpt lat="50.36811" lon="2.9798">
        <ele>34</ele>
        <time>2016-04-29T19:31:50+02:00</time>
      </trkpt>
      <trkpt lat="50.3681" lon="2.98058">
        <ele>34</ele>
        <time>2016-04-29T19:31:55+02:00</time>
      </trkpt>
      <trkpt lat="50.36813" lon="2.9822">
        <ele>36</ele>
        <time>2016-04-29T19:32:00+02:00</time>
      </trkpt>
      <trkpt lat="50.36813" lon="2.98263">
        <ele>36</ele>
        <time>2016-04-29T19:32:05+02:00</time>
      </trkpt>
      <trkpt lat="50.36821" lon="2.98313">
        <ele>35</ele>
        <time>2016-04-29T19:32:10+02:00</time>
      </trkpt>
      <trkpt lat="50.3685" lon="2.984">
        <ele>34</ele>
        <time>2016-04-29T19:32:15+02:00</time>
      </trkpt>
      <trkpt lat="50.36901" lon="2.98522">
        <ele>32</ele>
        <time>2016-04-29T19:32:20+02:00</time>
      </trkpt>
      <trkpt lat="50.36922" lon="2.98581">
        <ele>31</ele>
        <time>2016-04-29T19:32:25+02:00</time>
      </trkpt>
      <trkpt lat="50.36939" lon="2.98646">
        <ele>31</ele>
        <time>2016-04-29T18:55:08+02:00</time>
      </trkpt>
      <trkpt lat="50.37074" lon="2.98919">
        <ele>30</ele>
        <time>2016-04-29T21:05:26+02:00</time>
      </trkpt>
      <trkpt lat="50.37144" lon="2.99069">
        <ele>29</ele>
        <time>2016-04-29T21:05:31+02:00</time>
      </trkpt>
      <trkpt lat="50.37167" lon="2.99149">
        <ele>31</ele>
        <time>2016-04-29T21:05:36+02:00</time>
      </trkpt>
      <trkpt lat="50.37188" lon="2.9923">
        <ele>32</ele>
        <time>2016-04-29T21:05:41+02:00</time>
      </trkpt>
      <trkpt lat="50.37072" lon="2.99292">
        <ele>30</ele>
        <time>2016-04-29T21:05:46+02:00</time>
      </trkpt>
      <trkpt lat="50.37003" lon="2.99267">
        <ele>27</ele>
        <time>2016-04-29T21:05:51+02:00</time>
      </trkpt>
      <trkpt lat="50.37002" lon="2.99292">
        <ele>27</ele>
        <time>2016-04-29T21:05:56+02:00</time>
      </trkpt>
      <trkpt lat="50.37044" lon="2.99316">
        <ele>28</ele>
        <time>2016-04-29T21:06:01+02:00</time>
      </trkpt>
      <trkpt lat="50.37091" lon="2.9949">
        <ele>29</ele>
        <time>2016-04-29T21:06:06+02:00</time>
      </trkpt>
      <trkpt lat="50.3711" lon="2.99572">
        <ele>28</ele>
        <time>2016-04-29T21:06:11+02:00</time>
      </trkpt>
      <trkpt lat="50.37136" lon="2.99649">
        <ele>28</ele>
        <time>2016-04-29T21:06:16+02:00</time>
      </trkpt>
      <trkpt lat="50.37203" lon="2.9979">
        <ele>31</ele>
        <time>2016-04-29T21:06:21+02:00</time>
      </trkpt>
      <trkpt lat="50.37247" lon="2.99773">
        <ele>30</ele>
        <time>2016-04-29T21:06:26+02:00</time>
      </trkpt>
      <trkpt lat="50.37295" lon="2.99939">
        <ele>31</ele>
        <time>2016-04-29T21:06:31+02:00</time>
      </trkpt>
      <trkpt lat="50.37371" lon="2.99902">
        <ele>31</ele>
        <time>2016-04-29T21:06:36+02:00</time>
      </trkpt>
      <trkpt lat="50.37416" lon="3.00146">
        <ele>33</ele>
        <time>2016-04-29T21:06:41+02:00</time>
      </trkpt>
      <trkpt lat="50.37457" lon="3.00358">
        <ele>33</ele>
        <time>2016-04-29T21:06:46+02:00</time>
      </trkpt>
      <trkpt lat="50.37368" lon="3.0042">
        <ele>32</ele>
        <time>2016-04-29T21:06:51+02:00</time>
      </trkpt>
      <trkpt lat="50.37365" lon="3.00478">
        <ele>34</ele>
        <time>2016-04-29T21:06:56+02:00</time>
      </trkpt>
      <trkpt lat="50.37204" lon="3.00529">
        <ele>36</ele>
        <time>2016-04-29T21:07:01+02:00</time>
      </trkpt>
      <trkpt lat="50.37189" lon="3.00544">
        <ele>35</ele>
        <time>2016-04-29T21:07:06+02:00</time>
      </trkpt>
      <trkpt lat="50.37169" lon="3.00551">
        <ele>34</ele>
        <time>2016-04-29T21:07:11+02:00</time>
      </trkpt>
      <trkpt lat="50.37274" lon="3.00926">
        <ele>28</ele>
        <time>2016-04-29T21:07:16+02:00</time>
      </trkpt>
      <trkpt lat="50.37328" lon="3.01102">
        <ele>29</ele>
        <time>2016-04-29T21:07:21+02:00</time>
      </trkpt>
      <trkpt lat="50.37343" lon="3.01196">
        <ele>29</ele>
        <time>2016-04-29T21:07:26+02:00</time>
      </trkpt>
      <trkpt lat="50.37346" lon="3.0126">
        <ele>27</ele>
        <time>2016-04-29T21:07:31+02:00</time>
      </trkpt>
      <trkpt lat="50.37353" lon="3.01284">
        <ele>27</ele>
        <time>2016-04-29T21:07:36+02:00</time>
      </trkpt>
      <trkpt lat="50.37375" lon="3.0129">
        <ele>28</ele>
        <time>2016-04-29T21:07:41+02:00</time>
      </trkpt>
      <trkpt lat="50.37383" lon="3.01319">
        <ele>28</ele>
        <time>2016-04-29T21:07:46+02:00</time>
      </trkpt>
      <trkpt lat="50.37386" lon="3.01346">
        <ele>28</ele>
        <time>2016-04-29T21:07:51+02:00</time>
      </trkpt>
      <trkpt lat="50.37386" lon="3.01376">
        <ele>28</ele>
        <time>2016-04-29T21:07:56+02:00</time>
      </trkpt>
      <trkpt lat="50.37386" lon="3.01411">
        <ele>28</ele>
        <time>2016-04-29T21:08:01+02:00</time>
      </trkpt>
      <trkpt lat="50.37394" lon="3.0145">
        <ele>28</ele>
        <time>2016-04-29T21:08:06+02:00</time>
      </trkpt>
      <trkpt lat="50.37401" lon="3.01519">
        <ele>28</ele>
        <time>2016-04-29T21:08:11+02:00</time>
      </trkpt>
      <trkpt lat="50.3744" lon="3.01613">
        <ele>28</ele>
        <time>2016-04-29T21:08:16+02:00</time>
      </trkpt>
      <trkpt lat="50.37421" lon="3.01628">
        <ele>28</ele>
        <time>2016-04-29T21:08:21+02:00</time>
      </trkpt>
      <trkpt lat="50.3741" lon="3.01649">
        <ele>28</ele>
        <time>2016-04-29T21:08:26+02:00</time>
      </trkpt>
      <trkpt lat="50.374" lon="3.01673">
        <ele>28</ele>
        <time>2016-04-29T21:08:31+02:00</time>
      </trkpt>
      <trkpt lat="50.37394" lon="3.01689">
        <ele>28</ele>
        <time>2016-04-29T21:08:36+02:00</time>
      </trkpt>
      <trkpt lat="50.37362" lon="3.01689">
        <ele>29</ele>
        <time>2016-04-29T21:08:41+02:00</time>
      </trkpt>
      <trkpt lat="50.37322" lon="3.01721">
        <ele>31</ele>
        <time>2016-04-29T21:08:46+02:00</time>
      </trkpt>
      <trkpt lat="50.37291" lon="3.01742">
        <ele>32</ele>
        <time>2016-04-29T21:08:51+02:00</time>
      </trkpt>
      <trkpt lat="50.37201" lon="3.01805">
        <ele>36</ele>
        <time>2016-04-29T21:08:56+02:00</time>
      </trkpt>
      <trkpt lat="50.37209" lon="3.01885">
        <ele>38</ele>
        <time>2016-04-29T21:09:01+02:00</time>
      </trkpt>
      <trkpt lat="50.37224" lon="3.01952">
        <ele>37</ele>
        <time>2016-04-29T21:09:06+02:00</time>
      </trkpt>
      <trkpt lat="50.37232" lon="3.02016">
        <ele>36</ele>
        <time>2016-04-29T21:09:11+02:00</time>
      </trkpt>
      <trkpt lat="50.37252" lon="3.02215">
        <ele>35</ele>
        <time>2016-04-29T21:09:16+02:00</time>
      </trkpt>
      <trkpt lat="50.37128" lon="3.02261">
        <ele>37</ele>
        <time>2016-04-29T21:09:21+02:00</time>
      </trkpt>
      <trkpt lat="50.37036" lon="3.02291">
        <ele>37</ele>
        <time>2016-04-29T21:09:26+02:00</time>
      </trkpt>
      <trkpt lat="50.37017" lon="3.02299">
        <ele>37</ele>
        <time>2016-04-29T21:09:31+02:00</time>
      </trkpt>
      <trkpt lat="50.37007" lon="3.02308">
        <ele>37</ele>
        <time>2016-04-29T21:09:36+02:00</time>
      </trkpt>
      <trkpt lat="50.37003" lon="3.02299">
        <ele>37</ele>
        <time>2016-04-29T21:09:41+02:00</time>
      </trkpt>
      <trkpt lat="50.3697" lon="3.02078">
        <ele>35</ele>
        <time>2016-04-29T21:09:46+02:00</time>
      </trkpt>
      <trkpt lat="50.36957" lon="3.01975">
        <ele>37</ele>
        <time>2016-04-29T21:09:51+02:00</time>
      </trkpt>
      <trkpt lat="50.36934" lon="3.01868">
        <ele>39</ele>
        <time>2016-04-29T21:09:56+02:00</time>
      </trkpt>
      <trkpt lat="50.36905" lon="3.0175">
        <ele>39</ele>
        <time>2016-04-29T21:10:01+02:00</time>
      </trkpt>
      <trkpt lat="50.36871" lon="3.01629">
        <ele>39</ele>
        <time>2016-04-29T21:10:06+02:00</time>
      </trkpt>
      <trkpt lat="50.36833" lon="3.01511">
        <ele>41</ele>
        <time>2016-04-29T21:10:11+02:00</time>
      </trkpt>
      <trkpt lat="50.36792" lon="3.01395">
        <ele>42</ele>
        <time>2016-04-29T21:10:16+02:00</time>
      </trkpt>
      <trkpt lat="50.3674" lon="3.01089">
        <ele>43</ele>
        <time>2016-04-29T21:10:21+02:00</time>
      </trkpt>
      <trkpt lat="50.36712" lon="3.00934">
        <ele>42</ele>
        <time>2016-04-29T21:10:26+02:00</time>
      </trkpt>
      <trkpt lat="50.36701" lon="3.0086">
        <ele>42</ele>
        <time>2016-04-29T21:10:31+02:00</time>
      </trkpt>
      <trkpt lat="50.36693" lon="3.00786">
        <ele>42</ele>
        <time>2016-04-29T21:10:36+02:00</time>
      </trkpt>
      <trkpt lat="50.36664" lon="3.00478">
        <ele>42</ele>
        <time>2016-04-29T21:10:41+02:00</time>
      </trkpt>
      <trkpt lat="50.3664" lon="3.00327">
        <ele>41</ele>
        <time>2016-04-29T21:10:46+02:00</time>
      </trkpt>
      <trkpt lat="50.3661" lon="3.00179">
        <ele>41</ele>
        <time>2016-04-29T21:10:51+02:00</time>
      </trkpt>
      <trkpt lat="50.36571" lon="2.9999">
        <ele>40</ele>
        <time>2016-04-29T21:10:56+02:00</time>
      </trkpt>
      <trkpt lat="50.36471" lon="2.99583">
        <ele>42</ele>
        <time>2016-04-29T21:11:01+02:00</time>
      </trkpt>
      <trkpt lat="50.36442" lon="2.99465">
        <ele>44</ele>
        <time>2016-04-29T21:11:06+02:00</time>
      </trkpt>
      <trkpt lat="50.36422" lon="2.99331">
        <ele>45</ele>
        <time>2016-04-29T21:11:11+02:00</time>
      </trkpt>
      <trkpt lat="50.36413" lon="2.99196">
        <ele>44</ele>
        <time>2016-04-29T21:11:16+02:00</time>
      </trkpt>
      <trkpt lat="50.36411" lon="2.99093">
        <ele>44</ele>
        <time>2016-04-29T21:11:21+02:00</time>
      </trkpt>
      <trkpt lat="50.36393" lon="2.99021">
        <ele>44</ele>
        <time>2016-04-29T21:11:26+02:00</time>
      </trkpt>
      <trkpt lat="50.36364" lon="2.9894">
        <ele>44</ele>
        <time>2016-04-29T19:33:05+02:00</time>
      </trkpt>
      <trkpt lat="50.36309" lon="2.98779">
        <ele>43</ele>
        <time>2016-04-29T19:33:10+02:00</time>
      </trkpt>
      <trkpt lat="50.36292" lon="2.98722">
        <ele>44</ele>
        <time>2016-04-29T21:11:41+02:00</time>
      </trkpt>
      <trkpt lat="50.36283" lon="2.98692">
        <ele>44</ele>
        <time>2016-04-29T21:11:46+02:00</time>
      </trkpt>
      <trkpt lat="50.36279" lon="2.98664">
        <ele>43</ele>
        <time>2016-04-29T19:33:15+02:00</time>
      </trkpt>
      <trkpt lat="50.36281" lon="2.98629">
        <ele>43</ele>
        <time>2016-04-29T21:11:56+02:00</time>
      </trkpt>
      <trkpt lat="50.36309" lon="2.98542">
        <ele>41</ele>
        <time>2016-04-29T19:33:20+02:00</time>
      </trkpt>
      <trkpt lat="50.36268" lon="2.9833">
        <ele>39</ele>
        <time>2016-04-29T19:33:25+02:00</time>
      </trkpt>
      <trkpt lat="50.36253" lon="2.98277">
        <ele>40</ele>
        <time>2016-04-29T21:12:11+02:00</time>
      </trkpt>
      <trkpt lat="50.36236" lon="2.98225">
        <ele>40</ele>
        <time>2016-04-29T19:33:30+02:00</time>
      </trkpt>
      <trkpt lat="50.36227" lon="2.98169">
        <ele>40</ele>
        <time>2016-04-29T21:12:21+02:00</time>
      </trkpt>
      <trkpt lat="50.36225" lon="2.98083">
        <ele>38</ele>
        <time>2016-04-29T19:33:35+02:00</time>
      </trkpt>
      <trkpt lat="50.36247" lon="2.98011">
        <ele>37</ele>
        <time>2016-04-29T21:12:31+02:00</time>
      </trkpt>
      <trkpt lat="50.36257" lon="2.97973">
        <ele>37</ele>
        <time>2016-04-29T21:12:36+02:00</time>
      </trkpt>
      <trkpt lat="50.36262" lon="2.97933">
        <ele>36</ele>
        <time>2016-04-29T19:33:40+02:00</time>
      </trkpt>
      <trkpt lat="50.36262" lon="2.9788">
        <ele>35</ele>
        <time>2016-04-29T21:12:46+02:00</time>
      </trkpt>
      <trkpt lat="50.36268" lon="2.97829">
        <ele>35</ele>
        <time>2016-04-29T19:33:45+02:00</time>
      </trkpt>
      <trkpt lat="50.36283" lon="2.97787">
        <ele>33</ele>
        <time>2016-04-29T19:33:50+02:00</time>
      </trkpt>
      <trkpt lat="50.36269" lon="2.97758">
        <ele>33</ele>
        <time>2016-04-29T21:13:01+02:00</time>
      </trkpt>
      <trkpt lat="50.36262" lon="2.97724">
        <ele>33</ele>
        <time>2016-04-29T18:55:13+02:00</time>
      </trkpt>
      <trkpt lat="50.36265" lon="2.97693">
        <ele>33</ele>
        <time>2016-04-29T18:55:18+02:00</time>
      </trkpt>
      <trkpt lat="50.36282" lon="2.97582">
        <ele>35</ele>
        <time>2016-04-29T18:55:23+02:00</time>
      </trkpt>
      <trkpt lat="50.36292" lon="2.97546">
        <ele>35</ele>
        <time>2016-04-29T18:55:28+02:00</time>
      </trkpt>
      <trkpt lat="50.36295" lon="2.97496">
        <ele>36</ele>
        <time>2016-04-29T18:55:33+02:00</time>
      </trkpt>
      <trkpt lat="50.36287" lon="2.97399">
        <ele>36</ele>
        <time>2016-04-29T18:55:38+02:00</time>
      </trkpt>
      <trkpt lat="50.36263" lon="2.97229">
        <ele>37</ele>
        <time>2016-04-29T18:55:43+02:00</time>
      </trkpt>
      <trkpt lat="50.36239" lon="2.97051">
        <ele>36</ele>
        <time>2016-04-29T18:55:48+02:00</time>
      </trkpt>
      <trkpt lat="50.36231" lon="2.96961">
        <ele>37</ele>
        <time>2016-04-29T18:55:53+02:00</time>
      </trkpt>
      <trkpt lat="50.36235" lon="2.96875">
        <ele>37</ele>
        <time>2016-04-29T18:55:58+02:00</time>
      </trkpt>
      <trkpt lat="50.36382" lon="2.96838">
        <ele>32</ele>
        <time>2016-04-29T18:56:03+02:00</time>
      </trkpt>
      <trkpt lat="50.36405" lon="2.96831">
        <ele>31</ele>
        <time>2016-04-29T18:56:08+02:00</time>
      </trkpt>
      <trkpt lat="50.36427" lon="2.96811">
        <ele>31</ele>
        <time>2016-04-29T18:56:13+02:00</time>
      </trkpt>
      <trkpt lat="50.36662" lon="2.96734">
        <ele>38</ele>
        <time>2016-04-29T18:56:18+02:00</time>
      </trkpt>
      <trkpt lat="50.36661" lon="2.96721">
        <ele>38</ele>
        <time>2016-04-29T18:56:23+02:00</time>
      </trkpt>
      <trkpt lat="50.36664" lon="2.96678">
        <ele>38</ele>
        <time>2016-04-29T18:56:28+02:00</time>
      </trkpt>
      <trkpt lat="50.36663" lon="2.96602">
        <ele>38</ele>
        <time>2016-04-29T18:56:33+02:00</time>
      </trkpt>
      <trkpt lat="50.36658" lon="2.9653">
        <ele>37</ele>
        <time>2016-04-29T18:56:38+02:00</time>
      </trkpt>
      <trkpt lat="50.3665" lon="2.96491">
        <ele>36</ele>
        <time>2016-04-29T18:56:43+02:00</time>
      </trkpt>
      <trkpt lat="50.36631" lon="2.96435">
        <ele>35</ele>
        <time>2016-04-29T18:56:48+02:00</time>
      </trkpt>
      <trkpt lat="50.36587" lon="2.96337">
        <ele>33</ele>
        <time>2016-04-29T18:56:53+02:00</time>
      </trkpt>
      <trkpt lat="50.36579" lon="2.96322">
        <ele>33</ele>
        <time>2016-04-29T18:56:58+02:00</time>
      </trkpt>
      <trkpt lat="50.36555" lon="2.96241">
        <ele>33</ele>
        <time>2016-04-29T18:57:03+02:00</time>
      </trkpt>
      <trkpt lat="50.36476" lon="2.9586">
        <ele>33</ele>
        <time>2016-04-29T18:57:08+02:00</time>
      </trkpt>
      <trkpt lat="50.3647" lon="2.95777">
        <ele>33</ele>
        <time>2016-04-29T18:57:13+02:00</time>
      </trkpt>
      <trkpt lat="50.36471" lon="2.95755">
        <ele>33</ele>
        <time>2016-04-29T18:57:18+02:00</time>
      </trkpt>
      <trkpt lat="50.36474" lon="2.95704">
        <ele>34</ele>
        <time>2016-04-29T18:57:23+02:00</time>
      </trkpt>
      <trkpt lat="50.3647" lon="2.95652">
        <ele>34</ele>
        <time>2016-04-29T18:57:28+02:00</time>
      </trkpt>
      <trkpt lat="50.36459" lon="2.956">
        <ele>34</ele>
        <time>2016-04-29T18:57:33+02:00</time>
      </trkpt>
      <trkpt lat="50.36437" lon="2.95547">
        <ele>35</ele>
        <time>2016-04-29T18:57:38+02:00</time>
      </trkpt>
      <trkpt lat="50.36422" lon="2.95516">
        <ele>35</ele>
        <time>2016-04-29T18:57:43+02:00</time>
      </trkpt>
      <trkpt lat="50.36367" lon="2.95327">
        <ele>35</ele>
        <time>2016-04-29T18:57:48+02:00</time>
      </trkpt>
      <trkpt lat="50.36343" lon="2.95176">
        <ele>35</ele>
        <time>2016-04-29T18:57:53+02:00</time>
      </trkpt>
      <trkpt lat="50.3634" lon="2.95159">
        <ele>35</ele>
        <time>2016-04-29T18:57:58+02:00</time>
      </trkpt>
      <trkpt lat="50.36322" lon="2.95117">
        <ele>36</ele>
        <time>2016-04-29T18:58:03+02:00</time>
      </trkpt>
      <trkpt lat="50.36286" lon="2.95075">
        <ele>35</ele>
        <time>2016-04-29T18:58:08+02:00</time>
      </trkpt>
      <trkpt lat="50.36173" lon="2.94948">
        <ele>35</ele>
        <time>2016-04-29T18:58:13+02:00</time>
      </trkpt>
    </trkseg>
  </trk>
</gpx>